Погода в Тбилиси

Погода в Тбилиси : погода сейчас, прогноз погоды и архив. Всё, что Вы хотите узнать о погоде в Тбилиси!

Поиск расширенной информации на нашем сайте:

Полезная информация: Компьютерное кресло менеджер стандарт.

Другие новости

Новости СМИ2

Главная страница сайта

Новости сайта

03.07.2017

Напоминаем, что на нашем специализированном сайте Метеоцентр.Азия вы можете получить высокодетализированные автоматические прогнозы погоды по пунктам России, СНГ и мира в авиационном формате (включающие направление и скорость ветра, видимость, явления погоды, количество и форму облачности, нижнюю и верхнюю границу облачности).

Рекомендуем: ауди БМВ мерседес кузовной ремонт

Погода в Тбилиси - сегодня

Время (UTC), дата Ветер
(°,м/с) 
Видим.   Явления Облачность Т
(°С)
Тd
(°С)
f(%) Тe
(°С)
Pmin
(гПа)
dP
(гПа)
Po
(мм)
O2
(г/м3)
Тmin Tmax R s Состояние
почвы
09 18.07.17 140 (ЮВ) 20000 м    3/3 600 м 
[Cu hum]
+33.7 +16.4 36 +46  1009.1  -2.5  722  255           
12 18.07.17 110 (В) 20000 м    ясно 
+35.7 +16.3 32 +48  1006.7  -2  721  253           
15 18.07.17 160 (Ю) 20000 м    ясно 
+34.5 +16.7 35 +48  1006  -0.8  720  254    +36       
18 18.07.17 тихо ()   н/о    ясно 
+17.3 +13.7 79 +25  1009.1  1.7  721  270    +36       
21 18.07.17 тихо ()   н/о    ясно верхняя 
[Cc]
+23.5 +14.4 57 +32  1010.6    722  265           
00 19.07.17 тихо ()   н/о    ясно 
+22.3 +13.9 59 +30  1010.6  -0.2  722  266           
03 19.07.17 тихо ()   20000 м    4/4 600 м 
[Cu hum]
+21.7 +13 58 +28  1010.3  722  267           
06 19.07.17 320 (СЗ) 20000 м    4/4 600 м 
[Cu hum]
+27.5 +13.1 41 +34  1010.1  0.3  722  262           
09 19.07.17 110 (В) 20000 м    3/3 600 м 
[Cu hum]
+32 +12.1 30 +37  1008.7  -0.6  722  258           
12 19.07.17 110 (В) 20000 м  {ливн. осадки}  8/5 600 м кучево-дожд., средняя 
[Cb calv|Ac lent]
+34 +12.7 28 +40  1006  -2.3  720  255           
15 19.07.17 тихо ()   20000 м    6/4 600 м кучево-дожд., средняя 
[Cb calv|Ac lent]
+32.5 +11.7 28 +37  1005.2  -1  719  257    +34.5  0.0     
18 19.07.17 360 (С) н/о    8/5 600 м кучево-дожд., средняя 
[Cb calv|Ac lent]
+26.3 +13.2 44 +33  1008  1.7  720  262    +34.5  0.0     
21 19.07.17 тихо ()   н/о    8/8 600 м 
[Cu hum]
+23.5 +12.9 51 +30  1008.6  0.2  720  265           
00 20.07.17 тихо ()   н/о    8/8 600 м 
[Cu hum]
+22.3 +14.5 61 +31  1009  0.2  721  265           
03 20.07.17 тихо ()   20000 м    8/5 600 м верхняя 
[Cu hum|Ci]
+22.1 +16.5 71 +35  1009.1  0.1  721  265           
06 20.07.17 020 (С) 20000 м    4/4 600 м 
[Cu hum]
+28.3 +18.4 55 +45  1007.8  -0.2  721  259           
09 20.07.17 340 (С) 20000 м    3/3 600 м 
[Cu hum]
+33.5 +12.7 28 +39  1005.6  -1.6  719  256           
12 20.07.17 070 (В) 20000 м    1/1 600 м 
[Cu hum]
+35.5 +16.4 32 +48  1003.2  -1.8  718  253           
15 20.07.17 270 (З) 20000 м    4/3 600 м средняя 
[Cu hum|Ac lent]
+33.1 +18.2 41 +49  1003.4  -0.1  718  254    +36.3       
18 20.07.17 360 (С) н/о    4/3 600 м средняя 
[Cu hum|Ac lent]
+27.6 +18.2 57 +44  1006.8  2.4  720  259    +36.3       
21 20.07.17 360 (С) н/о    3/0 средняя 
[Ac lent]
+24.6 +18.3 68 +41  1008.2  0.9  720  262           
00 21.07.17 360 (С) н/о    ясно 
+23.4 +18.1 72 +39  1008.2  -0.2  720  263           
03 21.07.17 360 (С) 20000 м    ясно 
+23.2 +18.4 74 +40  1008.6  0.4  721  263           
06 21.07.17 360 (С) 20000 м    ясно 
+28 +19.2 59 +46  1008  0.2  721  259           
09 21.07.17 020 (С) 20000 м    ясно 
+33.3 +18.2 41 +49  1005.8  -1.4  720  254           
Время (UTC), дата Ветер
(°,м/с) 
Видим.   Явления Облачность Т
(°С)
Тd
(°С)
f(%) Тe
(°С)
Pmin
(гПа)
dP
(гПа)
Po
(мм)
O2
(г/м3)
Тmin Tmax R s Состояние
почвы

Для получения пояснительной информации подведите курсор к названию столбца.

ПОГОДА в Тбилиси - архив

Всё, что Вы хотите узнать о погоде в Тбилиси - удобно и подробно!

Выберите нужную дату (начиная с 1 января 2015* года) и нажмите кнопку "Найти".
Будут отображены архивные сводки погоды по пункту Тбилиси, начиная с указанной даты.


Отображать данные в формате CSV (для использования в таблицах Excel)


Внимание! Наш архив погоды предназначен исключительно для личного некоммерческого использования в познавательных целях. Если Вам необходимы официальные справки о состоянии погоды (для производственных, юридических, коммерческих и т.п. целей), обращайтесь в органы Росгидромета.

*Примечание: данная дата относится к архиву по метеостанциям СССР (Россия, СНГ, Балтия).
Архив по метеостанциям Зарубежной Европы и Азии (кроме Китая) хранится 10 дней, по другим регионам земного шара (Китай, Африка, Америка, Австралия, Океания) - 1 день.

Тбилиси - район местоположения метеостанции


Название, широта, долгота, высота метеостанции:
Тбилиси 41.7°ш. 44.8°д. 403 м над ур. моря [Грузия]

Дополнительная информация

В oтличие oт бoльшинства пoгoдных сайтoв мы публикуем пoдрoбную метеoинфoрмацию в детальнoм прoфессиoнальнoм фoрмате.

Характеристики температуры и влажнoсти вoздуха измеряются на высoте 2 м в тени вдали oт зданий и деревьев.
Скoрoсть ветра измеряется на высoте 10 м (на урoвне рoста челoвека скoрoсть ветра ниже в 1.5-2 раза). Если метеoстанция нахoдится в гoрoде или в лесу, тo скoрoсть ветра занижена на 2-4 м/с пo сравнению с oткрытым местoм. Скoрoсть ветра над акватoриями крупных рек и oзёр, а также на вершинах хoлмoв на 2-5 м/с выше, чем в oбычных услoвиях.
Атмoсфернoе давление в разных тoчках местнoсти мoжет значительнo oтличаться oт давления на метеoстанции, в зависимoсти oт услoвий рельефа (при пoдъёме на 10 м давление пoнижается примернo на 1 мм рт.ст.).